Hourly Data Report for September 24, 2017

All times are specified in Local Standard Time (LST). Add 1 hour to adjust for Daylight Saving Time where and when it is observed.

PANGNIRTUNG
NUNAVUT

66°08'36.300" N
65°42'40.500" W
22.60 m
2403049
71826
WXP

Download Data

Hourly Data (September 2017)
Hourly Data Report for September 24, 2017
Temp Definition
°C
Dew Point Temp Definition
°C
Rel Hum Definition
%
Wind Dir Definition
10's deg

Wind Spd Definition
km/h
Visibility Definition
km
Stn Press Definition
kPa
Hmdx Definition


Wind Chill Definition


Weather Definition


TIME
00:00 -0.6 -4.1 77 27 14   100.33   -5 LegendNANA
01:00 -0.7 -4.0 78 25 12   100.32   -5 LegendNANA
02:00 -0.8 -4.1 78 25 11   100.28   -5 LegendNANA
03:00 -0.2 -5.0 70 26 7   100.25   -3 LegendNANA
04:00 0.1 -4.8 70 33 7   100.25     LegendNANA
05:00 -0.6 -5.6 69 35 9   100.22   -4 LegendNANA
06:00 -0.8 -6.5 66 14 5   100.21   -2 LegendNANA
07:00 -0.8 -6.2 66 4 2   100.18   -1 LegendNANA
08:00 -0.7 -6.0 68 3 3   100.14   -2 LegendNANA
09:00 -0.6 -5.6 69 4 2   100.11   -1 LegendNANA
10:00 -0.4 -5.7 67 0 1   100.07   -1 LegendNANA
11:00 0.0 -3.9 75 28 6   100.04   -2 LegendNANA
12:00 0.5 -2.8 78 25 12   100.04     LegendNANA
13:00 0.8 -2.7 78 26 14   100.04     LegendNANA
14:00 0.8 -3.2 75 25 16   100.03     LegendNANA
15:00 1.0 -3.8 70 27 18   100.03     LegendNANA
16:00 0.8 -3.4 73 25 17   100.04     LegendNANA
17:00 0.8 -3.5 73 24 17   100.03     LegendNANA
18:00 0.6 -3.7 73 24 19   100.02     LegendNANA
19:00 0.5 -3.7 73 24 20   100.03     LegendNANA
20:00 0.0 -4.3 73 20 12   100.04   -4 LegendNANA
21:00 -0.6 -4.6 74 24 19   100.05   -6 LegendNANA
22:00 -1.3 -5.2 75 22 8   100.06   -4 LegendNANA
23:00 -0.9 -5.1 73 22 10   100.09   -4 LegendNANA

Notes on Data Quality.

Legend

  • E = Estimated
  • M = Missing
  • NA = Not Available
  • ‡ = Partner data that is not subject to review by the National Climate Archives
Date modified: